1493751600.23,30526,13.31,73982.3,-1.61,-31.57,-31.57,0,*54
1493751601.48,30527,13.38,73982.3,-1.61,-31.39,-31.33,0,*5F
1493751602.74,30528,13.38,73986.0,-1.63,-31.39,-31.39,0,*58
1493751604.0,30529,13.38,73982.5,-1.61,-31.39,-31.33,0,*51
1493751605.26,30530,13.31,73980.8,-1.61,-31.39,-31.33,0,*59
1493751606.53,30531,13.31,73980.3,-1.61,-31.23,-31.17,0,*55
1493751607.8,30532,13.31,73982.8,-1.61,-31.23,-31.05,0,*55
1493751609.01,30533,13.38,73984.5,-1.63,-31.17,-31.05,0,*51
1493751610.22,30534,13.38,73986.3,-1.63,-31.17,-31.05,0,*56
1493751611.48,30535,13.38,73986.5,-1.61,-31.17,-31.23,0,*51
1493751612.72,30536,13.38,73984.5,-1.61,-31.05,-31.05,0,*55
1493751613.93,30537,13.38,73988.8,-1.63,-31.05,-31.17,0,*55
1493751615.14,30538,13.38,73982.3,-1.63,-31.05,-31.17,0,*5A
1493751616.37,30539,13.38,73984.8,-1.61,-31.05,-31.17,0,*59
1493751617.63,30540,13.38,73984.5,-1.61,-30.89,-31.05,0,*51
1493751618.88,30541,13.38,73984.0,-1.63,-30.83,-30.89,0,*5D
1493751620.13,30542,13.38,73984.8,-1.59,-30.67,-30.77,0,*5C
1493751621.37,30543,13.31,73980.3,-1.59,-30.55,-30.67,0,*5D
1493751622.64,30544,13.38,73986.8,-1.59,-30.61,-30.77,0,*5C
1493751623.91,30545,13.38,73984.3,-1.59,-30.61,-30.77,0,*5D
1493751625.17,30546,13.38,73984.3,-1.59,-30.55,-30.77,0,*59
1493751626.41,30547,13.31,73980.5,-1.59,-30.61,-31.01,0,*5F
1493751627.67,30548,13.38,73984.8,-1.55,-30.77,-30.95,0,*57
1493751628.88,30549,13.38,73982.5,-1.59,-30.67,-31.01,0,*57
1493751630.1,30550,13.31,73980.3,-1.59,-30.67,-31.01,0,*5F
1493751631.34,30551,13.38,73984.5,-1.55,-30.95,-31.17,0,*58
1493751632.58,30552,13.38,73980.3,-1.59,-31.11,-31.45,0,*5D
1493751633.82,30553,13.38,73980.3,-1.59,-31.17,-31.51,0,*5F
1493751635.06,30554,13.31,73980.8,-1.59,-31.29,-31.51,0,*55
1493751636.28,30555,13.38,73980.3,-1.59,-31.29,-31.45,0,*51
1493751637.53,30556,13.38,73982.0,-1.59,-31.11,-31.29,0,*53
1493751638.74,30557,13.31,73980.5,-1.59,-31.01,-31.29,0,*53
1493751639.95,30558,13.31,73982.0,-1.55,-31.01,-31.29,0,*50
1493751641.15,30559,13.38,73980.5,-1.55,-31.01,-31.33,0,*5A
1493751642.39,30560,13.31,73976.3,-1.59,-30.95,-31.17,0,*56
1493751643.64,30561,13.38,73982.3,-1.59,-30.95,-31.17,0,*57
1493751644.87,30562,13.38,73980.8,-1.55,-30.95,-31.29,0,*55
1493751646.08,30563,13.31,73978.5,-1.59,-31.01,-31.33,0,*5F
1493751647.35,30564,13.31,73980.5,-1.59,-30.95,-31.11,0,*54
1493751648.56,30565,13.38,73982.0,-1.59,-31.01,-31.29,0,*52
1493751649.78,30566,13.38,73982.0,-1.59,-30.83,-31.29,0,*5A
1493751650.99,30567,13.38,73982.5,-1.55,-30.83,-31.29,0,*57
1493751652.28,30568,13.31,73982.8,-1.61,-30.89,-31.23,0,*5F
1493751653.5,30569,13.31,73982.0,-1.55,-30.83,-31.29,0,*59
1493751654.72,30570,13.31,73980.0,-1.59,-30.83,-31.17,0,*50
1493751655.92,30571,13.31,73982.3,-1.55,-31.01,-31.33,0,*50
1493751657.16,30572,13.31,73978.8,-1.59,-30.95,-31.29,0,*58
1493751658.43,30573,13.38,73982.0,-1.59,-30.77,-31.11,0,*5E
1493751659.69,30574,13.38,73978.8,-1.59,-30.95,-31.11,0,*55
1493751660.91,30575,13.38,73982.8,-1.55,-30.83,-31.17,0,*59
1493751662.15,30576,13.31,73978.5,-1.59,-30.95,-31.17,0,*51
1493751663.39,30577,13.38,73980.5,-1.55,-31.11,-31.29,0,*5C
1493751664.6,30578,13.31,73976.8,-1.55,-31.01,-31.33,0,*59
1493751665.8,30579,13.31,73978.5,-1.55,-31.01,-31.29,0,*53
1493751667.02,30580,13.38,73982.0,-1.59,-31.01,-31.17,0,*54
1493751668.26,30581,13.38,73982.3,-1.59,-30.77,-31.17,0,*55
1493751669.48,30582,13.31,73976.8,-1.59,-30.83,-31.17,0,*5D
1493751670.72,30583,13.38,73980.0,-1.55,-30.95,-31.17,0,*57
1493751671.96,30584,13.38,73980.5,-1.59,-31.11,-31.29,0,*5C
1493751673.2,30585,13.31,73980.5,-1.59,-30.95,-31.29,0,*50
1493751674.44,30586,13.38,73982.0,-1.59,-30.95,-31.29,0,*53
1493751675.71,30587,13.38,73982.8,-1.61,-31.17,-31.39,0,*53
1493751676.99,30588,13.31,73980.5,-1.61,-31.23,-31.57,0,*53
1493751678.25,30589,13.31,73982.8,-1.61,-31.17,-31.39,0,*5D
1493751679.52,30590,13.38,73982.3,-1.61,-31.17,-31.51,0,*5B
1493751680.78,30591,13.31,73982.3,-1.63,-31.23,-31.51,0,*5F
1493751682.04,30592,13.31,73978.0,-1.61,-31.17,-31.57,0,*5F
1493751683.25,30593,13.38,73982.8,-1.59,-31.01,-31.29,0,*5B
1493751684.5,30594,13.38,73980.3,-1.59,-31.11,-31.45,0,*57
1493751685.73,30595,13.38,73984.0,-1.61,-31.05,-31.33,0,*59
1493751686.99,30596,13.38,73980.5,-1.61,-31.17,-31.57,0,*5B
1493751688.28,30597,13.38,73982.8,-1.61,-31.23,-31.51,0,*5B
1493751689.57,30598,13.38,73980.8,-1.61,-31.23,-31.51,0,*54
1493751690.83,30599,13.31,73982.8,-1.61,-31.23,-31.67,0,*50
1493751692.12,30600,13.38,73982.8,-1.61,-31.23,-31.57,0,*50
1493751693.39,30601,13.31,73980.0,-1.63,-31.23,-31.51,0,*55
1493751694.65,30602,13.38,73984.3,-1.61,-31.05,-31.51,0,*50
1493751695.91,30603,13.31,73982.0,-1.61,-30.89,-31.33,0,*50
1493751697.17,30604,13.38,73986.8,-1.61,-31.05,-31.39,0,*58
1493751698.4,30605,13.31,73982.3,-1.63,-31.17,-31.51,0,*56
1493751699.64,30606,13.38,73984.8,-1.63,-31.05,-31.39,0,*58
1493751700.87,30607,13.38,73984.3,-1.61,-31.01,-31.33,0,*55
1493751702.1,30608,13.38,73984.0,-1.63,-30.89,-31.17,0,*5F
1493751703.4,30609,13.31,73980.3,-1.61,-30.89,-31.23,0,*5B
1493751704.63,30610,13.38,73986.0,-1.63,-31.01,-31.39,0,*5B
1493751705.89,30611,13.38,73984.3,-1.61,-31.05,-31.51,0,*52
1493751707.12,30612,13.38,73984.5,-1.61,-31.17,-31.67,0,*57
1493751708.33,30613,13.31,73980.0,-1.63,-31.17,-31.67,0,*54
1493751709.56,30614,13.31,73980.5,-1.63,-31.05,-31.51,0,*55
1493751710.8,30615,13.38,73984.0,-1.61,-30.83,-31.17,0,*5B
1493751712.07,30616,13.38,73982.8,-1.61,-30.83,-31.23,0,*5F
1493751713.31,30617,13.31,73982.3,-1.61,-30.83,-31.33,0,*5F
1493751714.54,30618,13.38,73984.8,-1.63,-31.05,-31.39,0,*57
1493751715.78,30619,13.31,73980.0,-1.63,-31.01,-31.39,0,*52
1493751716.99,30620,13.38,73980.5,-1.63,-30.83,-31.17,0,*5F
1493751718.23,30621,13.38,73984.0,-1.63,-30.73,-31.17,0,*51
1493751719.47,30622,13.38,73982.0,-1.63,-30.73,-31.17,0,*52
1493751720.71,30623,13.38,73980.3,-1.61,-30.83,-31.17,0,*5E
1493751721.92,30624,13.31,73980.3,-1.63,-30.83,-31.33,0,*5D
1493751723.17,30625,13.31,73980.0,-1.61,-30.83,-31.17,0,*58
1493751724.4,30626,13.31,73980.5,-1.63,-30.61,-31.05,0,*56
1493751725.63,30627,13.38,73982.0,-1.63,-30.61,-31.01,0,*53
1493751726.89,30628,13.31,73980.3,-1.61,-30.73,-31.05,0,*59
1493751728.16,30629,13.38,73982.5,-1.61,-30.73,-31.17,0,*5B
1493751729.4,30630,13.31,73978.8,-1.61,-30.67,-31.01,0,*51
1493751730.63,30631,13.38,73980.0,-1.61,-30.67,-31.01,0,*50
1493751731.87,30632,13.31,73980.8,-1.61,-30.67,-31.01,0,*53
1493751733.11,30633,13.31,73978.3,-1.61,-30.67,-31.01,0,*52
1493751734.38,30634,13.31,73980.0,-1.61,-30.67,-30.89,0,*54
1493751735.67,30635,13.38,73980.8,-1.61,-30.51,-30.89,0,*50
1493751736.96,30636,13.38,73980.0,-1.61,-30.51,-30.89,0,*53
1493751738.2,30637,13.38,73980.5,-1.61,-30.45,-30.83,0,*5D
1493751739.47,30638,13.38,73982.8,-1.61,-30.51,-30.83,0,*57
1493751740.73,30639,13.38,73976.5,-1.61,-30.33,-30.73,0,*5D
1493751741.95,30640,13.31,73978.5,-1.59,-30.45,-30.83,0,*56
1493751743.2,30641,13.38,73980.3,-1.55,-30.27,-30.77,0,*54
1493751744.46,30642,13.38,73978.8,-1.59,-30.39,-30.77,0,*54
1493751745.69,30643,13.38,73982.0,-1.59,-30.27,-30.67,0,*5B
1493751746.93,30644,13.38,73980.8,-1.59,-30.27,-30.61,0,*5A
1493751748.18,30645,13.31,73980.0,-1.59,-30.23,-30.61,0,*5F
1493751749.42,30646,13.38,73978.3,-1.59,-30.23,-30.61,0,*5C
1493751750.66,30647,13.38,73982.5,-1.59,-30.39,-30.83,0,*5A
1493751751.87,30648,13.38,73980.3,-1.59,-30.45,-30.83,0,*5E
1493751753.09,30649,13.38,73980.3,-1.59,-30.45,-30.83,0,*5F
1493751754.33,30650,13.31,73978.3,-1.59,-30.45,-30.77,0,*5C
1493751755.57,30651,13.31,73978.8,-1.59,-30.23,-30.77,0,*5D
1493751756.81,30652,13.38,73982.3,-1.55,-30.23,-30.61,0,*55
1493751758.05,30653,13.31,73978.3,-1.55,-30.39,-30.67,0,*59
1493751759.29,30654,13.31,73978.5,-1.59,-30.45,-30.77,0,*58
1493751760.55,30655,13.38,73980.0,-1.55,-30.39,-30.77,0,*5E
1493751761.79,30656,13.38,73982.0,-1.55,-30.39,-30.83,0,*56
1493751763.03,30657,13.38,73982.0,-1.59,-30.55,-30.83,0,*51
1493751764.27,30658,13.31,73980.8,-1.55,-30.55,-30.83,0,*52
1493751765.5,30659,13.38,73982.5,-1.59,-30.61,-31.01,0,*53
1493751766.74,30660,13.31,73982.5,-1.59,-30.77,-31.01,0,*5E
1493751767.97,30661,13.38,73982.8,-1.55,-30.55,-31.01,0,*53
1493751769.2,30662,13.31,73982.8,-1.55,-30.61,-31.01,0,*57
1493751770.44,30663,13.31,73978.5,-1.59,-30.55,-30.83,0,*56
1493751771.67,30664,13.31,73978.8,-1.59,-30.55,-31.01,0,*5A
1493751772.91,30665,13.38,73980.3,-1.59,-30.61,-30.83,0,*57
1493751774.16,30666,13.38,73980.8,-1.55,-30.55,-30.95,0,*58
1493751775.42,30667,13.31,73980.0,-1.55,-30.39,-30.77,0,*5F
1493751776.66,30668,13.31,73982.8,-1.59,-30.55,-30.83,0,*5D
1493751777.9,30669,13.31,73980.5,-1.55,-30.61,-31.01,0,*5C
1493751779.12,30670,13.38,73982.0,-1.55,-30.55,-31.01,0,*53
1493751780.36,30671,13.38,73982.3,-1.59,-30.61,-31.01,0,*59
1493751781.6,30672,13.31,73982.0,-1.55,-30.77,-31.17,0,*56
1493751782.84,30673,13.38,73986.0,-1.59,-30.67,-31.11,0,*5C
1493751784.07,30674,13.31,73982.3,-1.59,-30.61,-31.01,0,*5C
1493751785.33,30675,13.31,73984.3,-1.55,-30.61,-31.11,0,*50
1493751786.54,30676,13.38,73986.5,-1.55,-30.83,-31.33,0,*5F
1493751787.78,30677,13.31,73982.0,-1.59,-30.95,-31.33,0,*55
1493751789.05,30678,13.31,73982.3,-1.59,-31.11,-31.61,0,*50
1493751790.26,30679,13.31,73982.3,-1.55,-31.17,-31.67,0,*5D
1493751791.47,30680,13.31,73982.3,-1.59,-31.01,-31.45,0,*50
1493751792.71,30681,13.38,73986.5,-1.59,-30.77,-31.33,0,*50
1493751793.95,30682,13.31,73986.5,-1.59,-30.95,-31.33,0,*5F
1493751795.16,30683,13.31,73984.8,-1.59,-30.83,-31.33,0,*59
1493751796.38,30684,13.38,73984.5,-1.55,-30.83,-31.29,0,*59
1493751797.59,30685,13.38,73984.8,-1.59,-30.83,-31.33,0,*5F
1493751798.81,30686,13.38,73986.3,-1.59,-30.83,-31.29,0,*57
1493751800.04,30687,13.31,73986.8,-1.55,-30.95,-31.33,0,*56
1493751801.26,30688,13.38,73984.5,-1.59,-31.01,-31.45,0,*58
1493751802.47,30689,13.31,73984.5,-1.59,-31.01,-31.45,0,*59
1493751803.74,30690,13.31,73984.8,-1.59,-31.11,-31.61,0,*56
1493751804.98,30691,13.38,73986.8,-1.55,-31.11,-31.67,0,*5D
1493751806.24,30692,13.31,73980.5,-1.55,-31.11,-31.61,0,*58
1493751807.51,30693,13.38,73980.0,-1.59,-31.11,-31.51,0,*56
1493751808.78,30694,13.31,73976.8,-1.59,-31.11,-31.51,0,*51
1493751809.99,30695,13.31,73978.3,-1.59,-31.29,-31.67,0,*5E
1493751811.2,30696,13.31,73978.5,-1.59,-31.29,-31.79,0,*52
1493751812.44,30697,13.31,73980.3,-1.55,-31.29,-31.91,0,*59
1493751813.68,30698,13.31,73978.5,-1.59,-31.29,-31.91,0,*5A
1493751814.91,30699,13.31,73980.8,-1.55,-31.33,-31.91,0,*5C
1493751816.12,30700,13.38,73984.0,-1.55,-31.33,-31.79,0,*5B
1493751817.35,30701,13.38,73986.8,-1.55,-31.33,-31.91,0,*5C
1493751818.59,30702,13.31,73986.3,-1.55,-31.45,-31.91,0,*5E
1493751819.86,30703,13.31,73986.5,-1.59,-31.51,-32.07,0,*5A
1493751821.07,30704,13.31,73982.8,-1.59,-31.33,-32.01,0,*5F
1493751822.28,30705,13.31,73984.0,-1.59,-31.33,-32.01,0,*5E
1493751823.52,30706,13.31,73982.3,-1.59,-31.33,-31.91,0,*57
1493751824.76,30707,13.31,73984.8,-1.59,-31.45,-31.91,0,*57
1493751826.05,30708,13.31,73982.5,-1.61,-31.39,-31.95,0,*5C
1493751827.33,30709,13.38,73988.3,-1.61,-31.39,-31.95,0,*5D
1493751828.63,30710,13.31,73982.5,-1.61,-31.57,-31.95,0,*5D
1493751829.92,30711,13.31,73986.8,-1.61,-31.57,-32.07,0,*54
1493751831.13,30712,13.31,73984.0,-1.59,-31.45,-32.01,0,*59
1493751832.42,30713,13.38,73986.3,-1.61,-31.51,-31.95,0,*58
1493751833.65,30714,13.31,73984.8,-1.61,-31.67,-32.13,0,*57
1493751834.95,30715,13.31,73984.3,-1.61,-31.57,-32.07,0,*50
1493751836.24,30716,13.31,73982.8,-1.61,-31.57,-32.07,0,*53
1493751837.47,30717,13.31,73986.3,-1.63,-31.57,-32.13,0,*55
1493751838.74,30718,13.31,73986.8,-1.63,-31.57,-32.07,0,*5F
1493751840.0,30719,13.31,73986.8,-1.63,-31.51,-32.07,0,*58
1493751841.27,30720,13.38,73986.5,-1.63,-31.39,-31.95,0,*54
1493751842.55,30721,13.31,73984.5,-1.61,-31.39,-31.85,0,*56
1493751843.84,30722,13.31,73986.5,-1.61,-31.23,-31.73,0,*57
1493751845.07,30723,13.31,73984.0,-1.63,-31.17,-31.51,0,*53
1493751846.3,30724,13.31,73986.3,-1.63,-31.01,-31.57,0,*55
1493751847.56,30725,13.31,73986.5,-1.61,-31.17,-31.57,0,*51
1493751848.82,30726,13.38,73988.8,-1.61,-31.17,-31.51,0,*54
1493751850.08,30727,13.31,73982.5,-1.61,-31.05,-31.51,0,*56
1493751851.28,30728,13.31,73980.8,-1.63,-31.17,-31.67,0,*5D
1493751852.52,30729,13.31,73984.0,-1.61,-31.17,-31.67,0,*5E
1493751853.78,30730,13.31,73986.8,-1.61,-31.17,-31.51,0,*53
1493751855.04,30731,13.31,73984.5,-1.61,-31.33,-31.57,0,*52
1493751856.27,30732,13.31,73984.3,-1.63,-31.33,-31.73,0,*55
1493751857.56,30733,13.31,73986.8,-1.61,-31.23,-31.73,0,*57
1493751858.81,30734,13.31,73990.5,-1.61,-31.17,-31.73,0,*57
1493751860.07,30735,13.31,73986.0,-1.61,-31.33,-31.73,0,*50
1493751861.33,30736,13.38,73986.5,-1.63,-31.23,-31.73,0,*50
1493751862.59,30737,13.31,73986.5,-1.61,-31.23,-31.67,0,*56
1493751863.85,30738,13.31,73984.0,-1.61,-31.33,-31.73,0,*5D
1493751865.11,30739,13.31,73984.5,-1.61,-31.23,-31.67,0,*58
1493751866.35,30740,13.38,73984.8,-1.63,-31.23,-31.67,0,*54
1493751867.56,30741,13.31,73986.8,-1.63,-31.33,-31.67,0,*54
1493751868.79,30742,13.31,73984.5,-1.63,-31.33,-31.73,0,*52
1493751870.05,30743,13.38,73986.8,-1.63,-31.23,-31.57,0,*54
1493751871.29,30744,13.38,73988.3,-1.63,-31.23,-31.67,0,*50
1493751872.52,30745,13.31,73986.0,-1.61,-31.17,-31.67,0,*54
1493751873.73,30746,13.31,73984.0,-1.63,-31.17,-31.67,0,*55
1493751874.97,30747,13.31,73984.5,-1.63,-31.23,-31.67,0,*53
1493751876.23,30748,13.31,73984.8,-1.61,-31.23,-31.67,0,*5E
1493751877.46,30749,13.31,73986.8,-1.63,-31.33,-31.73,0,*59
1493751878.69,30750,13.31,73986.8,-1.63,-31.33,-31.73,0,*51
1493751879.93,30751,13.31,73984.8,-1.63,-31.33,-31.95,0,*58
1493751881.17,30752,13.31,73986.8,-1.63,-31.23,-31.67,0,*57
1493751882.42,30753,13.31,73986.8,-1.65,-31.39,-31.79,0,*54
1493751883.68,30754,13.31,73984.3,-1.65,-31.39,-31.79,0,*53
1493751884.91,30755,13.31,73986.5,-1.65,-31.29,-31.79,0,*53
1493751886.2,30756,13.31,73986.5,-1.65,-31.11,-31.61,0,*52
1493751887.49,30757,13.38,73986.5,-1.65,-31.23,-31.61,0,*52
1493751888.77,30758,13.31,73986.0,-1.65,-31.39,-31.73,0,*55
1493751890.0,30759,13.31,73982.3,-1.63,-31.33,-31.73,0,*58
1493751891.28,30760,13.31,73984.5,-1.65,-31.39,-31.91,0,*52
1493751892.56,30761,13.31,73986.0,-1.65,-31.39,-31.91,0,*53
1493751893.84,30762,13.38,73990.0,-1.65,-31.39,-31.91,0,*50
1493751895.08,30763,13.31,73984.0,-1.67,-31.45,-31.95,0,*5C
1493751896.35,30764,13.38,73986.5,-1.63,-31.51,-31.95,0,*5A
1493751897.6,30765,13.31,73986.3,-1.65,-31.57,-32.01,0,*55
1493751898.87,30766,13.31,73984.8,-1.63,-31.51,-32.07,0,*50
1493751900.08,30767,13.31,73986.3,-1.67,-31.79,-32.35,0,*5E
1493751901.37,30768,13.31,73986.8,-1.65,-31.61,-32.19,0,*54
1493751902.63,30769,13.38,73988.0,-1.65,-31.57,-32.13,0,*5A
1493751903.92,30770,13.31,73980.5,-1.65,-31.61,-32.19,0,*5D
1493751905.15,30771,13.31,73982.0,-1.67,-31.67,-32.19,0,*58
1493751906.41,30772,13.38,73986.3,-1.65,-31.57,-32.13,0,*50
1493751907.68,30773,13.31,73980.8,-1.67,-31.61,-32.19,0,*5C
1493751908.91,30774,13.31,73982.3,-1.67,-31.67,-32.19,0,*5D
1493751910.18,30775,13.31,73980.8,-1.67,-31.61,-32.07,0,*55
1493751911.47,30776,13.31,73982.0,-1.65,-31.61,-32.19,0,*5B
1493751912.67,30777,13.31,73980.5,-1.67,-31.67,-32.23,0,*57
1493751913.96,30778,13.31,73982.5,-1.65,-31.73,-32.19,0,*56
1493751915.17,30779,13.31,73982.8,-1.67,-31.79,-32.23,0,*56
1493751916.41,30780,13.31,73982.5,-1.67,-31.85,-32.35,0,*54
1493751917.63,30781,13.31,73984.3,-1.67,-31.79,-32.39,0,*5A
1493751918.83,30782,13.31,73982.3,-1.67,-31.67,-32.23,0,*5D
1493751920.07,30783,13.31,73982.5,-1.67,-31.67,-32.19,0,*55
1493751921.28,30784,13.31,73986.3,-1.67,-31.79,-32.23,0,*54
1493751922.51,30785,13.31,73982.3,-1.67,-31.67,-32.19,0,*53
1493751923.78,30786,13.31,73982.8,-1.63,-31.57,-32.07,0,*58
1493751925.05,30787,13.31,73980.5,-1.67,-31.61,-32.19,0,*57
1493751926.31,30788,13.31,73982.8,-1.67,-31.51,-32.07,0,*54
1493751927.55,30789,13.31,73984.3,-1.67,-31.61,-32.23,0,*50
1493751928.76,30790,13.31,73986.5,-1.67,-31.79,-32.23,0,*51
1493751929.99,30791,13.31,73986.5,-1.67,-31.67,-32.19,0,*56
1493751931.26,30792,13.31,73984.0,-1.67,-31.61,-32.07,0,*5C
1493751932.52,30793,13.31,73982.0,-1.67,-31.51,-32.07,0,*5E
1493751933.76,30794,13.31,73986.5,-1.67,-31.67,-32.07,0,*5C
1493751934.97,30795,13.31,73984.5,-1.67,-31.79,-32.23,0,*54
1493751936.23,30796,13.31,73980.3,-1.67,-31.61,-32.07,0,*58
1493751937.47,30797,13.31,73982.8,-1.67,-31.67,-32.07,0,*5F
1493751938.71,30798,13.31,73986.5,-1.67,-31.85,-32.23,0,*5A
1493751939.94,30799,13.31,73982.5,-1.67,-31.85,-32.35,0,*5C
1493751941.18,30800,13.31,73984.5,-1.67,-31.67,-32.19,0,*51
1493751942.42,30801,13.31,73984.8,-1.67,-31.79,-32.19,0,*5F
1493751943.71,30802,13.31,73982.3,-1.65,-31.73,-32.19,0,*54
1493751944.92,30803,13.31,73986.5,-1.67,-31.79,-32.23,0,*54
1493751946.15,30804,13.31,73982.8,-1.65,-31.79,-32.13,0,*52
1493751947.39,30805,13.31,73982.5,-1.67,-31.95,-32.35,0,*57
1493751948.63,30806,13.31,73984.8,-1.67,-31.85,-32.23,0,*52
1493751949.92,30807,13.38,73988.5,-1.69,-31.95,-32.19,0,*55
1493751951.18,30808,13.31,73984.8,-1.67,-31.85,-32.19,0,*55
1493751952.45,30809,13.31,73988.0,-1.69,-31.85,-32.23,0,*53
1493751953.68,30810,13.31,73986.8,-1.69,-32.01,-32.35,0,*53
1493751954.92,30811,13.31,73984.5,-1.69,-32.01,-32.23,0,*55
1493751956.21,30812,13.31,73984.5,-1.69,-31.95,-32.19,0,*51
1493751957.47,30813,13.31,73984.0,-1.69,-31.95,-32.23,0,*59
1493751958.71,30814,13.31,73984.0,-1.69,-32.01,-32.23,0,*50
1493751959.95,30815,13.31,73982.0,-1.69,-32.01,-32.23,0,*51
1493751961.22,30816,13.38,73986.8,-1.69,-32.07,-32.39,0,*5F
1493751962.48,30817,13.31,73986.8,-1.69,-32.07,-32.35,0,*52
1493751963.69,30818,13.31,73982.5,-1.71,-32.13,-32.39,0,*5D
1493751964.95,30819,13.31,73986.8,-1.69,-32.07,-32.35,0,*5C
1493751966.21,30820,13.31,73982.0,-1.69,-32.07,-32.35,0,*56
1493751967.47,30821,13.31,73982.8,-1.73,-32.23,-32.45,0,*5D
1493751968.72,30822,13.31,73980.5,-1.71,-32.29,-32.45,0,*56
1493751969.95,30823,13.31,73980.8,-1.71,-32.29,-32.57,0,*54
1493751971.16,30824,13.31,73982.3,-1.71,-32.23,-32.39,0,*51
1493751972.36,30825,13.31,73982.8,-1.71,-32.39,-32.57,0,*53
1493751973.59,30826,13.31,73982.3,-1.71,-32.29,-32.57,0,*51
1493751974.82,30827,13.31,73984.3,-1.71,-32.23,-32.45,0,*59
1493751976.08,30828,13.31,73984.5,-1.69,-32.19,-32.39,0,*5D
1493751977.29,30829,13.31,73982.8,-1.71,-32.23,-32.39,0,*5C
1493751978.53,30830,13.31,73982.3,-1.71,-31.91,-32.13,0,*56
1493751979.76,30831,13.31,73980.3,-1.71,-31.85,-32.13,0,*52
1493751981.05,30832,13.31,73984.8,-1.69,-31.85,-31.95,0,*55
1493751982.31,30833,13.31,73984.0,-1.69,-31.67,-31.85,0,*59
1493751983.57,30834,13.31,73986.0,-1.71,-31.73,-31.91,0,*57
1493751984.83,30835,13.31,73980.0,-1.69,-31.61,-31.79,0,*5A
1493751986.06,30836,13.31,73986.0,-1.71,-31.67,-31.73,0,*5C
1493751987.29,30837,13.31,73984.0,-1.71,-31.67,-31.85,0,*54
1493751988.56,30838,13.31,73980.8,-1.69,-31.79,-31.95,0,*5C
1493751989.77,30839,13.31,73984.8,-1.71,-32.01,-32.13,0,*55
1493751991.0,30840,13.31,73980.0,-1.71,-31.91,-32.01,0,*52
1493751992.24,30841,13.31,73980.5,-1.71,-31.91,-32.13,0,*50
1493751993.52,30842,13.31,73980.5,-1.69,-31.61,-31.85,0,*59
1493751994.79,30843,13.31,73980.3,-1.69,-31.79,-32.07,0,*58
1493751996.05,30844,13.31,73982.0,-1.69,-31.79,-32.07,0,*5F
1493751997.29,30845,13.31,73980.5,-1.71,-31.85,-32.01,0,*52
1493751998.52,30846,13.31,73984.5,-1.71,-31.73,-32.13,0,*5B
1493751999.81,30847,13.31,73980.3,-1.69,-31.85,-31.95,0,*57
1493752001.1,30848,13.31,73980.8,-1.69,-31.85,-32.07,0,*50
1493752002.36,30849,13.31,73984.3,-1.69,-31.67,-31.95,0,*55
1493752003.65,30850,13.31,73980.8,-1.69,-31.85,-32.07,0,*59
1493752004.92,30851,13.31,73984.5,-1.69,-31.79,-32.07,0,*5B
1493752006.18,30852,13.31,73984.3,-1.69,-31.85,-32.23,0,*5D
1493752007.47,30853,13.31,73982.3,-1.69,-31.85,-32.07,0,*5A
1493752008.76,30854,13.31,73982.3,-1.69,-31.95,-32.19,0,*53
1493752010.02,30855,13.31,73986.8,-1.67,-31.95,-32.19,0,*5C
1493752011.26,30856,13.31,73984.5,-1.67,-31.67,-31.95,0,*55
1493752012.55,30857,13.31,73984.8,-1.69,-31.61,-32.07,0,*54
1493752013.81,30858,13.31,73984.0,-1.69,-31.95,-32.23,0,*56
1493752015.08,30859,13.31,73986.0,-1.69,-32.07,-32.39,0,*54
1493752016.34,30860,13.31,73986.0,-1.69,-32.07,-32.35,0,*52
1493752017.6,30861,13.31,73984.3,-1.71,-32.07,-32.45,0,*5D
1493752018.84,30862,13.31,73986.3,-1.69,-32.01,-32.39,0,*5A
1493752020.08,30863,13.31,73982.3,-1.71,-32.07,-32.57,0,*5C
1493752021.31,30864,13.31,73984.3,-1.71,-32.13,-32.45,0,*5D
1493752022.55,30865,13.31,73984.0,-1.71,-32.01,-32.45,0,*5F
1493752023.79,30866,13.31,73982.5,-1.69,-32.01,-32.35,0,*52
1493752025.06,30867,13.31,73986.5,-1.71,-32.07,-32.45,0,*5B
1493752026.32,30868,13.31,73984.0,-1.71,-32.07,-32.45,0,*54
1493752027.59,30869,13.38,73990.0,-1.71,-32.07,-32.45,0,*55
1493752028.82,30870,13.31,73982.8,-1.71,-32.23,-32.63,0,*5F
1493752030.05,30871,13.31,73986.0,-1.71,-32.07,-32.57,0,*5F
1493752031.29,30872,13.31,73986.5,-1.71,-32.07,-32.57,0,*5C
1493752032.49,30873,13.31,73984.3,-1.71,-32.13,-32.57,0,*58
1493752033.73,30874,13.31,73984.3,-1.71,-32.13,-32.63,0,*58
1493752034.96,30875,13.31,73988.0,-1.73,-32.01,-32.39,0,*57
1493752036.22,30876,13.31,73986.5,-1.73,-31.85,-32.23,0,*50
1493752037.48,30877,13.31,73986.8,-1.73,-31.73,-32.23,0,*58
1493752038.74,30878,13.31,73986.5,-1.73,-31.85,-32.23,0,*5E
1493752039.98,30879,13.31,73986.3,-1.71,-31.85,-32.23,0,*5D
1493752041.18,30880,13.31,73990.0,-1.71,-31.67,-32.13,0,*54
1493752042.41,30881,13.31,73986.5,-1.73,-31.67,-32.01,0,*54
1493752043.62,30882,13.31,73986.8,-1.71,-31.67,-32.01,0,*55
1493752044.91,30883,13.31,73984.3,-1.69,-31.61,-32.07,0,*5D
1493752046.14,30884,13.31,73986.8,-1.71,-31.85,-32.23,0,*5F
1493752047.41,30885,13.31,73986.5,-1.71,-32.07,-32.45,0,*57
1493752048.64,30886,13.31,73984.5,-1.71,-31.91,-32.23,0,*58
1493752049.88,30887,13.31,73988.0,-1.71,-32.01,-32.29,0,*59
1493752051.12,30888,13.31,73986.0,-1.71,-31.73,-32.23,0,*5A
1493752052.38,30889,13.31,73982.8,-1.73,-31.57,-32.01,0,*5F
1493752053.58,30890,13.31,73984.8,-1.71,-31.67,-32.13,0,*55
1493752054.82,30891,13.31,73986.8,-1.71,-31.73,-32.23,0,*52
1493752056.03,30892,13.31,73988.0,-1.71,-31.67,-32.13,0,*57
1493752057.23,30893,13.31,73988.8,-1.71,-31.67,-32.13,0,*56
1493752058.47,30894,13.31,73986.3,-1.71,-31.91,-32.23,0,*5B
1493752059.72,30895,13.31,73984.3,-1.71,-31.91,-32.29,0,*50
1493752061.01,30896,13.31,73984.8,-1.69,-31.85,-32.07,0,*53
1493752062.25,30897,13.31,73986.0,-1.71,-31.73,-32.13,0,*57
1493752063.51,30898,13.31,73988.0,-1.73,-31.73,-32.13,0,*5A
1493752064.76,30899,13.31,73984.0,-1.73,-31.57,-32.01,0,*5E
1493752065.97,30900,13.31,73986.8,-1.71,-31.67,-32.13,0,*5D
1493752067.2,30901,13.31,73980.8,-1.73,-31.67,-32.01,0,*5D
1493752068.49,30902,13.31,73984.0,-1.69,-31.61,-32.07,0,*55
1493752069.72,30903,13.31,73984.3,-1.71,-31.57,-32.01,0,*5E
1493752070.96,30904,13.31,73988.3,-1.71,-31.57,-32.01,0,*59
1493752072.16,30905,13.31,73986.3,-1.71,-31.67,-32.01,0,*5B
1493752073.43,30906,13.31,73984.8,-1.71,-31.85,-32.29,0,*5E
1493752074.66,30907,13.31,73986.0,-1.71,-31.85,-32.23,0,*55
1493752075.9,30908,13.31,73986.5,-1.71,-31.85,-32.23,0,*5A
1493752077.14,30909,13.31,73984.3,-1.71,-31.85,-32.23,0,*5B
1493752078.4,30910,13.31,73984.8,-1.71,-31.85,-32.29,0,*59
1493752079.64,30911,13.31,73988.8,-1.71,-31.91,-32.39,0,*5C
1493752080.9,30912,13.31,73982.5,-1.71,-31.85,-32.29,0,*5B
1493752082.16,30913,13.31,73986.8,-1.69,-31.95,-32.35,0,*5F
1493752083.38,30914,13.31,73984.8,-1.71,-32.01,-32.39,0,*53
1493752084.61,30915,13.31,73986.0,-1.71,-31.91,-32.23,0,*53
1493752085.85,30916,13.31,73984.0,-1.71,-31.91,-32.23,0,*50
1493752087.11,30917,13.31,73986.5,-1.71,-31.91,-32.29,0,*5B
1493752088.37,30918,13.31,73984.5,-1.69,-31.67,-32.19,0,*57
1493752089.6,30919,13.31,73986.8,-1.71,-31.57,-32.13,0,*56
1493752090.89,30920,13.31,73986.3,-1.69,-31.61,-32.07,0,*55
1493752092.13,30921,13.31,73988.5,-1.71,-31.73,-32.13,0,*5B
1493752093.37,30922,13.31,73986.8,-1.71,-31.73,-32.13,0,*58
1493752094.6,30923,13.31,73982.0,-1.71,-31.85,-32.13,0,*50
1493752095.87,30924,13.31,73980.0,-1.71,-31.57,-31.91,0,*51
1493752097.07,30925,13.31,73984.0,-1.71,-31.67,-32.13,0,*5A